| time (UTC) | temp F | wind direction | speed knots | gust knots | rain 1hr in | rain 24hr in | rain mn in | humidity % | barometer mb |
| 20260504050556 | 56 | 253 | 2.6 | 6.1 | 0.00 | 0.00 | 0.00 | 75 | 1012.5 |
| 20260504045557 | 56 | 229 | 1.7 | 6.1 | 0.00 | 0.00 | 0.00 | 75 | 1012.3 |
| 20260504045055 | 56 | 234 | 2.6 | 6.1 | 0.00 | 0.00 | 0.00 | 75 | 1012.2 |
| 20260504044557 | 56 | 230 | 1.7 | 5.2 | 0.00 | 0.00 | 0.00 | 75 | 1012.1 |
| 20260504044055 | 56 | 360 | 1.7 | 4.3 | 0.00 | 0.00 | 0.00 | 75 | 1012.1 |
| 20260504043555 | 56 | 360 | 1.7 | 4.3 | 0.00 | 0.00 | 0.00 | 75 | 1012.0 |
| 20260504043100 | 55 | 360 | 1.7 | 3.5 | 0.00 | 0.00 | 0.00 | 75 | 1011.9 |
| 20260504042555 | 55 | 360 | 0.9 | 3.5 | 0.00 | 0.00 | 0.00 | 75 | 1011.9 |
| 20260504042056 | 55 | 0 | 0.9 | 5.2 | 0.00 | 0.00 | 0.00 | 75 | 1011.9 |
| 20260504041555 | 55 | 219 | 1.7 | 7.0 | 0.00 | 0.00 | 0.00 | 75 | 1011.9 |
| 20260504041057 | 55 | 360 | 2.6 | 7.0 | 0.00 | 0.00 | 0.00 | 76 | 1011.8 |
| 20260504040557 | 55 | 360 | 2.6 | 7.0 | 0.00 | 0.00 | 0.00 | 76 | 1012.0 |
| 20260504040137 | 55 | 360 | 1.7 | 5.2 | 0.00 | 0.00 | 0.00 | 76 | 1011.8 |
| 20260504035557 | 55 | 360 | 1.7 | 5.2 | 0.00 | 0.00 | 0.00 | 76 | 1011.8 |
| 20260504035100 | 55 | 360 | 1.7 | 4.3 | 0.00 | 0.00 | 0.00 | 75 | 1011.8 |
| 20260504034604 | 55 | 360 | 0.9 | 3.5 | 0.00 | 0.00 | 0.00 | 75 | 1011.9 |
| 20260504034058 | 55 | 360 | 0.0 | 3.5 | 0.00 | 0.00 | 0.00 | 75 | 1011.9 |
| 20260504033558 | 54 | 360 | 0.9 | 5.2 | 0.00 | 0.00 | 0.00 | 75 | 1011.9 |
| 20260504033058 | 54 | 360 | 1.7 | 5.2 | 0.00 | 0.00 | 0.00 | 75 | 1011.9 |
| 20260504032557 | 54 | 360 | 2.6 | 7.0 | 0.00 | 0.00 | 0.00 | 75 | 1011.7 |
| 20260504032102 | 54 | 360 | 2.6 | 7.0 | 0.00 | 0.00 | 0.00 | 75 | 1011.8 |
| 20260504031621 | 54 | 360 | 3.5 | 7.0 | 0.00 | 0.00 | 0.00 | 75 | 1011.8 |
| 20260504031057 | 54 | 360 | 2.6 | 5.2 | 0.00 | 0.00 | 0.00 | 75 | 1011.8 |
| 20260504030557 | 54 | 360 | 2.6 | 7.0 | 0.00 | 0.00 | 0.00 | 75 | 1011.8 |
| 20260504030057 | 55 | 360 | 2.6 | 7.0 | 0.00 | 0.00 | 0.00 | 75 | 1011.8 |
| 20260504025557 | 55 | 360 | 3.5 | 7.0 | 0.00 | 0.00 | 0.00 | 74 | 1011.8 |
| 20260504025058 | 55 | 360 | 3.5 | 7.0 | 0.00 | 0.00 | 0.00 | 73 | 1011.8 |
| 20260504024603 | 55 | 360 | 2.6 | 5.2 | 0.00 | 0.00 | 0.00 | 73 | 1011.8 |
| 20260504024057 | 56 | 360 | 2.6 | 4.3 | 0.00 | 0.00 | 0.00 | 72 | 1011.7 |
| 20260504023557 | 56 | 360 | 1.7 | 4.3 | 0.00 | 0.00 | 0.00 | 71 | 1011.7 |
| 20260504023055 | 56 | 360 | 1.7 | 4.3 | 0.00 | 0.00 | 0.00 | 71 | 1011.7 |
| 20260504022557 | 56 | 360 | 1.7 | 4.3 | 0.00 | 0.00 | 0.00 | 70 | 1011.7 |
| 20260504022057 | 57 | 360 | 2.6 | 5.2 | 0.00 | 0.00 | 0.00 | 70 | 1011.7 |
| 20260504021628 | 57 | 360 | 2.6 | 5.2 | 0.00 | 0.00 | 0.00 | 70 | 1011.7 |
| 20260504021557 | 57 | 360 | 2.6 | 5.2 | 0.00 | 0.00 | 0.00 | 70 | 1011.7 |
| 20260504021056 | 57 | 360 | 2.6 | 4.3 | 0.00 | 0.00 | 0.00 | 69 | 1011.7 |
| 20260504020600 | 57 | 360 | 1.7 | 3.5 | 0.00 | 0.00 | 0.00 | 69 | 1011.7 |
| 20260504020112 | 57 | 236 | 2.6 | 4.3 | 0.00 | 0.00 | 0.00 | 69 | 1011.6 |
| 20260504015559 | 57 | 360 | 2.6 | 4.3 | 0.00 | 0.00 | 0.00 | 69 | 1011.7 |
| 20260504015058 | 58 | 360 | 2.6 | 4.3 | 0.00 | 0.00 | 0.00 | 69 | 1011.6 |
| 20260504014556 | 58 | 360 | 2.6 | 5.2 | 0.00 | 0.00 | 0.00 | 69 | 1011.6 |
| 20260504014054 | 58 | 360 | 2.6 | 5.2 | 0.00 | 0.00 | 0.00 | 69 | 1011.6 |
| 20260504013557 | 58 | 232 | 2.6 | 7.0 | 0.00 | 0.00 | 0.00 | 69 | 1011.6 |
| 20260504013058 | 58 | 360 | 2.6 | 7.0 | 0.00 | 0.00 | 0.00 | 69 | 1011.7 |
| 20260504012557 | 58 | 360 | 2.6 | 5.2 | 0.00 | 0.00 | 0.00 | 68 | 1011.9 |
| 20260504012057 | 59 | 360 | 1.7 | 3.5 | 0.00 | 0.00 | 0.00 | 68 | 1011.9 |
| 20260504011556 | 59 | 360 | 0.9 | 7.0 | 0.00 | 0.00 | 0.00 | 68 | 1011.8 |
| 20260504011058 | 59 | 360 | 0.9 | 7.0 | 0.00 | 0.00 | 0.00 | 68 | 1011.7 |
| 20260504010556 | 59 | 246 | 2.6 | 7.0 | 0.00 | 0.00 | 0.00 | 68 | 1011.6 |
| 20260504010058 | 59 | 360 | 3.5 | 7.0 | 0.00 | 0.00 | 0.00 | 68 | 1011.6 |
| 20260504005557 | 59 | 230 | 1.7 | 7.0 | 0.00 | 0.00 | 0.00 | 68 | 1011.5 |
| 20260504005057 | 59 | 231 | 1.7 | 7.0 | 0.00 | 0.00 | 0.00 | 67 | 1011.5 |
| 20260504004600 | 60 | 360 | 1.7 | 4.3 | 0.00 | 0.00 | 0.00 | 67 | 1011.5 |
| 20260504004058 | 60 | 221 | 1.7 | 4.3 | 0.00 | 0.00 | 0.00 | 67 | 1011.5 |
| 20260504003557 | 60 | 219 | 0.9 | 4.3 | 0.00 | 0.00 | 0.00 | 67 | 1011.5 |
| 20260504003100 | 60 | 360 | 1.7 | 5.2 | 0.00 | 0.00 | 0.00 | 67 | 1011.5 |
| 20260504002557 | 60 | 360 | 2.6 | 5.2 | 0.00 | 0.00 | 0.00 | 67 | 1011.5 |
| 20260504002057 | 60 | 360 | 2.6 | 7.0 | 0.00 | 0.00 | 0.00 | 66 | 1011.4 |
| 20260504001603 | 60 | 360 | 2.6 | 7.0 | 0.00 | 0.00 | 0.00 | 66 | 1011.4 |
| 20260504001057 | 61 | 360 | 0.9 | 3.5 | 0.00 | 0.00 | 0.00 | 66 | 1011.4 |
| 20260504000557 | 61 | 0 | 0.0 | 2.6 | 0.00 | 0.00 | 0.00 | 66 | 1011.4 |
| 20260504000056 | 61 | 360 | 0.9 | 3.5 | 0.00 | 0.00 | 0.00 | 66 | 1011.5 |
| 20260503235558 | 61 | 245 | 1.7 | 6.1 | 0.00 | 0.00 | 0.00 | 66 | 1011.5 |
| 20260503235100 | 61 | 242 | 2.6 | 7.0 | 0.00 | 0.00 | 0.00 | 66 | 1011.5 |
| 20260503234628 | 61 | 240 | 1.7 | 7.8 | 0.00 | 0.00 | 0.00 | 66 | 1011.5 |
| 20260503234100 | 61 | 234 | 3.5 | 7.8 | 0.00 | 0.00 | 0.00 | 66 | 1011.4 |
| 20260503233557 | 61 | 360 | 2.6 | 7.8 | 0.00 | 0.00 | 0.00 | 65 | 1011.4 |
| 20260503233100 | 61 | 360 | 2.6 | 7.0 | 0.00 | 0.00 | 0.00 | 65 | 1011.4 |
| 20260503232557 | 61 | 360 | 2.6 | 6.1 | 0.00 | 0.00 | 0.00 | 65 | 1011.3 |
| 20260503232057 | 61 | 360 | 2.6 | 7.0 | 0.00 | 0.00 | 0.00 | 65 | 1011.3 |
| 20260503231558 | 61 | 360 | 1.7 | 7.0 | 0.00 | 0.00 | 0.00 | 64 | 1011.3 |
| 20260503231057 | 61 | 360 | 2.6 | 7.0 | 0.00 | 0.00 | 0.00 | 63 | 1011.4 |
| 20260503230600 | 61 | 360 | 1.7 | 3.5 | 0.00 | 0.00 | 0.00 | 63 | 1011.5 |
| 20260503230058 | 62 | 0 | 0.9 | 3.5 | 0.00 | 0.00 | 0.00 | 63 | 1011.6 |
| 20260503225557 | 62 | 0 | 0.0 | 1.7 | 0.00 | 0.00 | 0.00 | 61 | 1011.7 |
| 20260503225058 | 62 | 0 | 0.0 | 3.5 | 0.00 | 0.00 | 0.00 | 61 | 1011.7 |
| 20260503224557 | 62 | 0 | 0.0 | 3.5 | 0.00 | 0.00 | 0.00 | 61 | 1011.6 |
| 20260503224058 | 62 | 360 | 1.7 | 3.5 | 0.00 | 0.00 | 0.00 | 61 | 1011.7 |
| 20260503223557 | 62 | 225 | 1.7 | 3.5 | 0.00 | 0.00 | 0.00 | 61 | 1011.8 |
| 20260503223056 | 62 | 228 | 1.7 | 4.3 | 0.00 | 0.00 | 0.00 | 61 | 1011.8 |
| 20260503222558 | 63 | 360 | 1.7 | 4.3 | 0.00 | 0.00 | 0.00 | 60 | 1011.8 |
| 20260503222057 | 63 | 360 | 1.7 | 3.5 | 0.00 | 0.00 | 0.00 | 59 | 1011.7 |
| 20260503221610 | 63 | 360 | 0.0 | 2.6 | 0.00 | 0.00 | 0.00 | 58 | 1011.6 |
| 20260503221057 | 63 | 279 | 0.0 | 5.2 | 0.00 | 0.00 | 0.00 | 58 | 1011.6 |
| 20260503220558 | 63 | 0 | 0.9 | 5.2 | 0.00 | 0.00 | 0.00 | 57 | 1011.5 |
| 20260503220057 | 63 | 262 | 0.9 | 5.2 | 0.00 | 0.00 | 0.00 | 57 | 1011.5 |
| 20260503215557 | 64 | 263 | 0.9 | 5.2 | 0.00 | 0.00 | 0.00 | 57 | 1011.5 |
| 20260503215056 | 64 | 238 | 1.7 | 7.0 | 0.00 | 0.00 | 0.00 | 56 | 1011.6 |
| 20260503214557 | 64 | 246 | 2.6 | 7.0 | 0.00 | 0.00 | 0.00 | 55 | 1011.5 |
| 20260503214057 | 64 | 248 | 3.5 | 7.0 | 0.00 | 0.00 | 0.00 | 55 | 1011.5 |
| 20260503213557 | 64 | 246 | 2.6 | 6.1 | 0.00 | 0.00 | 0.00 | 54 | 1011.5 |
| 20260503213057 | 64 | 275 | 1.7 | 7.8 | 0.00 | 0.00 | 0.00 | 54 | 1011.4 |
| 20260503212557 | 64 | 274 | 4.3 | 8.7 | 0.00 | 0.00 | 0.00 | 54 | 1011.4 |
| 20260503212058 | 64 | 264 | 3.5 | 9.6 | 0.00 | 0.00 | 0.00 | 53 | 1011.4 |
| 20260503211556 | 64 | 288 | 4.3 | 9.6 | 0.00 | 0.00 | 0.00 | 53 | 1011.4 |
| 20260503211057 | 65 | 273 | 4.3 | 9.6 | 0.00 | 0.00 | 0.00 | 53 | 1011.4 |
| 20260503210557 | 65 | 280 | 4.3 | 10.4 | 0.00 | 0.00 | 0.00 | 53 | 1011.3 |
| 20260503210100 | 65 | 268 | 5.2 | 10.4 | 0.00 | 0.00 | 0.00 | 53 | 1011.2 |
| 20260503205559 | 65 | 287 | 5.2 | 10.4 | 0.00 | 0.00 | 0.00 | 53 | 1011.2 |
| 20260503205058 | 65 | 263 | 5.2 | 9.6 | 0.00 | 0.00 | 0.00 | 52 | 1011.2 |
| 20260503204558 | 65 | 266 | 3.5 | 8.7 | 0.00 | 0.00 | 0.00 | 52 | 1011.2 |
| 20260503204056 | 65 | 279 | 4.3 | 8.7 | 0.00 | 0.00 | 0.00 | 51 | 1011.2 |
| 20260503203556 | 65 | 257 | 4.3 | 10.4 | 0.00 | 0.00 | 0.00 | 51 | 1011.2 |
| 20260503203100 | 66 | 285 | 6.1 | 10.4 | 0.00 | 0.00 | 0.00 | 50 | 1011.2 |
| 20260503202556 | 66 | 257 | 6.1 | 11.3 | 0.00 | 0.00 | 0.00 | 50 | 1011.2 |
| 20260503202057 | 66 | 283 | 5.2 | 11.3 | 0.00 | 0.00 | 0.00 | 49 | 1011.3 |
| 20260503201558 | 66 | 272 | 6.1 | 13.0 | 0.00 | 0.00 | 0.00 | 49 | 1011.2 |
| 20260503201059 | 66 | 293 | 6.1 | 13.0 | 0.00 | 0.00 | 0.00 | 47 | 1011.2 |
| 20260503200557 | 66 | 304 | 5.2 | 10.4 | 0.00 | 0.00 | 0.00 | 46 | 1011.2 |
| 20260503200058 | 66 | 269 | 4.3 | 8.7 | 0.00 | 0.00 | 0.00 | 45 | 1011.1 |
| 20260503195600 | 67 | 274 | 3.5 | 7.8 | 0.00 | 0.00 | 0.00 | 43 | 1011.0 |
| 20260503195057 | 67 | 264 | 3.5 | 8.7 | 0.00 | 0.00 | 0.00 | 43 | 1011.0 |
| 20260503194603 | 67 | 267 | 4.3 | 8.7 | 0.00 | 0.00 | 0.00 | 42 | 1010.9 |
| 20260503194057 | 67 | 238 | 3.5 | 8.7 | 0.00 | 0.00 | 0.00 | 41 | 1010.9 |
| 20260503193557 | 67 | 261 | 3.5 | 8.7 | 0.00 | 0.00 | 0.00 | 41 | 1010.8 |
| 20260503193056 | 67 | 251 | 3.5 | 7.0 | 0.00 | 0.00 | 0.00 | 41 | 1010.7 |
| 20260503192556 | 67 | 240 | 2.6 | 7.8 | 0.00 | 0.00 | 0.00 | 41 | 1010.7 |
| 20260503192057 | 68 | 240 | 3.5 | 7.8 | 0.00 | 0.00 | 0.00 | 40 | 1010.7 |
| 20260503191603 | 68 | 228 | 3.5 | 8.7 | 0.00 | 0.00 | 0.00 | 40 | 1010.6 |
| 20260503191058 | 68 | 244 | 4.3 | 8.7 | 0.00 | 0.00 | 0.00 | 39 | 1010.5 |
| 20260503190559 | 69 | 246 | 3.5 | 7.0 | 0.00 | 0.00 | 0.00 | 39 | 1010.5 |
| 20260503190057 | 69 | 238 | 2.6 | 10.4 | 0.00 | 0.00 | 0.00 | 38 | 1010.4 |
| 20260503185558 | 69 | 244 | 3.5 | 11.3 | 0.00 | 0.00 | 0.00 | 38 | 1010.4 |
| 20260503185100 | 69 | 223 | 4.3 | 11.3 | 0.00 | 0.00 | 0.00 | 37 | 1010.3 |
| 20260503184559 | 69 | 232 | 5.2 | 11.3 | 0.00 | 0.00 | 0.00 | 38 | 1010.3 |
| 20260503184057 | 69 | 237 | 4.3 | 10.4 | 0.00 | 0.00 | 0.00 | 37 | 1010.3 |
| 20260503183558 | 69 | 278 | 5.2 | 12.2 | 0.00 | 0.00 | 0.00 | 37 | 1010.2 |
| 20260503183105 | 70 | 181 | 6.1 | 12.2 | 0.00 | 0.00 | 0.00 | 36 | 1010.2 |
| 20260503182556 | 70 | 245 | 4.3 | 14.8 | 0.00 | 0.00 | 0.00 | 37 | 1010.2 |
| 20260503182057 | 70 | 244 | 7.8 | 14.8 | 0.00 | 0.00 | 0.00 | 35 | 1010.1 |
| 20260503181605 | 70 | 238 | 6.1 | 14.8 | 0.00 | 0.00 | 0.00 | 36 | 1010.1 |
| 20260503181056 | 70 | 210 | 5.2 | 14.8 | 0.00 | 0.00 | 0.00 | 36 | 1010.0 |
| 20260503180555 | 70 | 238 | 6.1 | 14.8 | 0.00 | 0.00 | 0.00 | 35 | 1010.0 |
| 20260503180106 | 70 | 260 | 7.0 | 16.5 | 0.00 | 0.00 | 0.00 | 36 | 1010.0 |
| 20260503175556 | 70 | 232 | 6.1 | 16.5 | 0.00 | 0.00 | 0.00 | 36 | 1009.9 |
| 20260503175056 | 70 | 244 | 7.8 | 13.9 | 0.00 | 0.00 | 0.00 | 37 | 1009.9 |
| 20260503174604 | 69 | 219 | 5.2 | 12.2 | 0.00 | 0.00 | 0.00 | 39 | 1009.8 |
| 20260503174056 | 70 | 209 | 4.3 | 8.7 | 0.00 | 0.00 | 0.00 | 41 | 1009.8 |
| 20260503173557 | 70 | 348 | 0.0 | 4.3 | 0.00 | 0.00 | 0.00 | 43 | 1009.8 |
| 20260503173111 | 70 | 190 | 0.9 | 4.3 | 0.00 | 0.00 | 0.00 | 42 | 1009.8 |
| 20260503172558 | 70 | 190 | 1.7 | 4.3 | 0.00 | 0.00 | 0.00 | 42 | 1009.8 |
| 20260503172057 | 70 | 212 | 0.9 | 5.2 | 0.00 | 0.00 | 0.00 | 42 | 1009.8 |
| 20260503171600 | 70 | 217 | 2.6 | 6.1 | 0.00 | 0.00 | 0.00 | 42 | 1009.9 |
| 20260503171056 | 70 | 203 | 1.7 | 7.0 | 0.00 | 0.00 | 0.00 | 42 | 1010.0 |
| 20260503170557 | 71 | 246 | 3.5 | 7.8 | 0.00 | 0.00 | 0.00 | 41 | 1010.0 |
| 20260503150559 | 71 | 175 | 2.6 | 7.0 | 0.00 | 0.00 | 0.00 | 38 | 1010.4 |
| 20260503140108 | 72 | 198 | 2.6 | 5.2 | 0.00 | 0.00 | 0.00 | 40 | 1010.8 |
| 20260503131058 | 70 | 229 | 1.7 | 7.0 | 0.00 | 0.00 | 0.00 | 40 | 1011.3 |
| 20260503130559 | 70 | 205 | 2.6 | 7.8 | 0.00 | 0.00 | 0.00 | 39 | 1011.4 |
| 20260503110556 | 72 | 189 | 5.2 | 13.9 | 0.00 | 0.00 | 0.00 | 40 | 1012.1 |
| 20260503110108 | 72 | 213 | 6.1 | 13.0 | 0.00 | 0.00 | 0.00 | 36 | 1012.2 |
| 20260503081556 | 72 | 0 | 1.7 | 7.0 | 0.00 | 0.00 | 0.00 | 49 | 1012.7 |
| 20260503081056 | 71 | 202 | 2.6 | 7.8 | 0.00 | 0.00 | 0.00 | 48 | 1012.6 |
| 20260503080556 | 71 | 208 | 2.6 | 7.8 | 0.00 | 0.00 | 0.00 | 48 | 1012.6 |
| 20260503072556 | 67 | 0 | 0.9 | 4.3 | 0.00 | 0.00 | 0.00 | 63 | 1012.6 |
| 20260503072057 | 66 | 0 | 0.0 | 4.3 | 0.00 | 0.00 | 0.00 | 64 | 1012.6 |
| 20260503071612 | 66 | 0 | 0.9 | 4.3 | 0.00 | 0.00 | 0.00 | 64 | 1012.6 |
| 20260503071056 | 65 | 0 | 0.0 | 2.6 | 0.00 | 0.00 | 0.00 | 66 | 1012.7 |
| 20260503070601 | 64 | 0 | 0.0 | 0.9 | 0.00 | 0.00 | 0.00 | 67 | 1012.6 |
| 20260503060125 | 58 | 0 | 0.0 | 4.3 | 0.00 | 0.00 | 0.00 | 77 | 1012.6 |
| 20260503055057 | 57 | 169 | 2.6 | 7.0 | 0.00 | 0.00 | 0.00 | 77 | 1012.5 |
| 20260503054601 | 56 | 171 | 2.6 | 7.8 | 0.00 | 0.00 | 0.00 | 78 | 1012.5 |
| 20260503054058 | 56 | 151 | 2.6 | 7.8 | 0.00 | 0.00 | 0.00 | 78 | 1012.5 |
| 20260503053558 | 56 | 179 | 2.6 | 6.1 | 0.00 | 0.00 | 0.00 | 79 | 1012.5 |
| 20260503053058 | 55 | 360 | 2.6 | 5.2 | 0.00 | 0.00 | 0.00 | 79 | 1012.6 |
| 20260503052558 | 55 | 360 | 0.9 | 7.8 | 0.00 | 0.00 | 0.00 | 80 | 1012.6 |
| 20260503052058 | 54 | 360 | 1.7 | 7.8 | 0.00 | 0.00 | 0.00 | 81 | 1012.6 |
| 20260503051555 | 54 | 360 | 1.7 | 7.0 | 0.00 | 0.00 | 0.00 | 82 | 1012.6 |
| 20260503051101 | 54 | 360 | 2.6 | 5.2 | 0.00 | 0.00 | 0.00 | 83 | 1012.7 |